Time,TemperatureF,DewpointF,PressureIn,WindDirection,WindDirectionDegrees,WindSpeedMPH,WindSpeedGustMPH,Humidity,HourlyPrecipIn,Conditions,Clouds,dailyrainin,SoftwareType,DateUTC
2012-03-18 00:01:00,66.4,59.7,29.97,North,4,0.0,0.0,79,0.00,,,0.00,VWS V13.01,2012-03-18 05:01:00,
2012-03-18 00:06:00,66.0,60.0,29.97,North,4,0.0,0.0,81,0.00,,,0.00,VWS V13.01,2012-03-18 05:06:00,
2012-03-18 00:11:00,65.8,60.2,29.97,North,4,0.0,0.0,82,0.00,,,0.00,VWS V13.01,2012-03-18 05:11:00,
2012-03-18 00:16:00,65.7,60.0,29.97,North,4,0.0,0.0,82,0.00,,,0.00,VWS V13.01,2012-03-18 05:16:00,
2012-03-18 00:21:00,65.5,60.2,29.97,North,4,0.0,0.0,83,0.00,,,0.00,VWS V13.01,2012-03-18 05:21:00,
2012-03-18 00:26:00,65.3,60.3,29.97,North,4,0.0,0.0,84,0.00,,,0.00,VWS V13.01,2012-03-18 05:26:00,
2012-03-18 00:31:00,65.3,60.7,29.97,East,79,2.7,3.6,85,0.00,,,0.00,VWS V13.01,2012-03-18 05:31:00,
2012-03-18 00:36:00,66.0,61.0,29.97,East,80,3.1,3.6,84,0.00,,,0.00,VWS V13.01,2012-03-18 05:36:00,
2012-03-18 00:41:00,66.6,60.6,29.97,ENE,75,3.1,4.0,81,0.00,,,0.00,VWS V13.01,2012-03-18 05:41:00,
2012-03-18 00:46:00,67.8,60.3,29.97,East,80,4.5,4.5,77,0.00,,,0.00,VWS V13.01,2012-03-18 05:46:00,
2012-03-18 00:51:00,68.7,59.7,29.97,East,86,4.9,6.3,73,0.00,,,0.00,VWS V13.01,2012-03-18 05:51:00,
2012-03-18 00:56:00,69.3,59.9,29.97,ESE,108,4.0,8.7,72,0.00,,,0.00,VWS V13.01,2012-03-18 05:56:00,
2012-03-18 01:01:00,69.4,59.6,29.97,ESE,111,5.4,5.4,71,0.00,,,0.00,VWS V13.01,2012-03-18 06:01:00,
2012-03-18 01:06:00,69.8,59.6,29.97,East,83,8.7,8.7,70,0.00,,,0.00,VWS V13.01,2012-03-18 06:06:00,
2012-03-18 01:11:00,69.8,59.6,29.97,ENE,69,5.4,8.1,70,0.00,,,0.00,VWS V13.01,2012-03-18 06:11:00,
2012-03-18 01:16:00,70.0,59.8,29.97,East,98,5.8,10.1,70,0.00,,,0.00,VWS V13.01,2012-03-18 06:16:00,
2012-03-18 01:21:00,70.0,59.8,29.97,East,99,4.9,5.8,70,0.00,,,0.00,VWS V13.01,2012-03-18 06:21:00,
2012-03-18 01:26:00,69.8,60.0,29.97,ESE,114,3.6,4.9,71,0.00,,,0.00,VWS V13.01,2012-03-18 06:26:00,
2012-03-18 01:31:00,69.6,60.2,29.97,ENE,70,5.4,5.4,72,0.00,,,0.00,VWS V13.01,2012-03-18 06:31:00,
2012-03-18 01:36:00,69.6,60.2,29.97,SE,125,6.3,7.6,72,0.00,,,0.00,VWS V13.01,2012-03-18 06:36:00,
2012-03-18 01:41:00,69.6,60.6,29.97,ESE,107,4.9,4.9,73,0.00,,,0.00,VWS V13.01,2012-03-18 06:41:00,
2012-03-18 01:46:00,69.6,60.6,29.97,East,84,6.3,6.3,73,0.00,,,0.00,VWS V13.01,2012-03-18 06:46:00,
2012-03-18 01:51:00,69.6,61.0,29.97,ESE,104,5.8,5.8,74,0.00,,,0.00,VWS V13.01,2012-03-18 06:51:00,
2012-03-18 01:56:00,69.4,61.2,29.97,East,85,4.0,5.8,75,0.00,,,0.00,VWS V13.01,2012-03-18 06:56:00,
2012-03-18 02:01:00,69.4,61.2,29.97,ESE,114,3.6,8.1,75,0.00,,,0.00,VWS V13.01,2012-03-18 07:01:00,
2012-03-18 02:06:00,69.4,61.2,29.97,East,81,4.0,4.0,75,0.00,,,0.00,VWS V13.01,2012-03-18 07:06:00,
2012-03-18 02:11:00,69.3,61.4,29.97,ENE,75,8.7,9.6,76,0.00,,,0.00,VWS V13.01,2012-03-18 07:11:00,
2012-03-18 02:16:00,69.4,61.5,29.97,ESE,102,4.0,7.2,76,0.00,,,0.00,VWS V13.01,2012-03-18 07:16:00,
2012-03-18 02:21:00,69.4,61.9,29.97,East,84,3.1,4.9,77,0.00,,,0.00,VWS V13.01,2012-03-18 07:21:00,
2012-03-18 02:26:00,69.3,61.8,29.97,East,89,3.6,5.4,77,0.00,,,0.00,VWS V13.01,2012-03-18 07:26:00,
2012-03-18 02:31:00,69.3,62.1,29.97,East,80,7.6,7.6,78,0.00,,,0.00,VWS V13.01,2012-03-18 07:31:00,
2012-03-18 02:36:00,69.3,62.1,29.97,ESE,104,2.7,3.6,78,0.00,,,0.00,VWS V13.01,2012-03-18 07:36:00,
2012-03-18 02:41:00,69.3,62.1,29.97,ESE,123,2.7,2.7,78,0.00,,,0.00,VWS V13.01,2012-03-18 07:41:00,
2012-03-18 02:46:00,69.3,62.5,29.97,ESE,112,4.0,5.4,79,0.00,,,0.00,VWS V13.01,2012-03-18 07:46:00,
2012-03-18 02:51:00,69.1,62.3,29.97,East,101,3.6,3.6,79,0.00,,,0.00,VWS V13.01,2012-03-18 07:51:00,
2012-03-18 02:56:00,69.1,62.3,29.97,ESE,117,3.1,3.1,79,0.00,,,0.00,VWS V13.01,2012-03-18 07:56:00,
2012-03-18 03:01:00,68.9,62.5,29.97,ESE,117,3.6,4.0,80,0.00,,,0.00,VWS V13.01,2012-03-18 08:01:00,
2012-03-18 03:06:00,68.9,62.8,29.97,ESE,112,3.1,4.9,81,0.00,,,0.00,VWS V13.01,2012-03-18 08:06:00,
2012-03-18 03:11:00,68.9,62.8,29.97,ESE,123,6.3,6.3,81,0.00,,,0.00,VWS V13.01,2012-03-18 08:11:00,
2012-03-18 03:16:00,68.9,62.8,29.97,ENE,68,4.0,4.0,81,0.00,,,0.00,VWS V13.01,2012-03-18 08:16:00,
2012-03-18 03:21:00,68.7,63.0,29.97,ENE,76,2.7,4.5,82,0.00,,,0.00,VWS V13.01,2012-03-18 08:21:00,
2012-03-18 03:26:00,68.7,63.0,29.97,East,95,2.2,3.1,82,0.00,,,0.00,VWS V13.01,2012-03-18 08:26:00,
2012-03-18 03:31:00,68.4,63.0,29.97,NE,42,5.4,5.4,83,0.00,,,0.00,VWS V13.01,2012-03-18 08:31:00,
2012-03-18 03:36:00,68.4,63.0,29.97,ENE,73,4.9,5.8,83,0.00,,,0.00,VWS V13.01,2012-03-18 08:36:00,
2012-03-18 03:41:00,68.2,62.8,29.97,ENE,68,0.0,0.0,83,0.00,,,0.00,VWS V13.01,2012-03-18 08:41:00,
2012-03-18 03:46:00,68.0,63.0,29.97,ENE,61,4.0,5.4,84,0.00,,,0.00,VWS V13.01,2012-03-18 08:46:00,
2012-03-18 03:51:00,68.0,63.0,29.97,NE,45,0.0,0.0,84,0.00,,,0.00,VWS V13.01,2012-03-18 08:51:00,
2012-03-18 03:56:00,67.6,63.0,29.97,East,84,0.0,0.0,85,0.00,,,0.00,VWS V13.01,2012-03-18 08:56:00,
2012-03-18 04:01:00,67.5,63.1,29.97,East,83,0.0,0.0,86,0.00,,,0.00,VWS V13.01,2012-03-18 09:01:00,
2012-03-18 04:06:00,67.1,63.1,29.97,West,267,2.7,3.1,87,0.00,,,0.00,VWS V13.01,2012-03-18 09:06:00,
2012-03-18 04:11:00,66.4,63.0,29.97,NW,315,0.0,0.0,89,0.00,,,0.00,VWS V13.01,2012-03-18 09:11:00,
2012-03-18 04:16:00,66.2,63.5,29.97,NW,318,0.0,0.0,91,0.00,,,0.00,VWS V13.01,2012-03-18 09:16:00,
2012-03-18 04:21:00,66.0,63.6,29.97,NNW,328,0.0,0.0,92,0.00,,,0.00,VWS V13.01,2012-03-18 09:21:00,
2012-03-18 04:26:00,65.8,63.8,29.97,NE,38,2.7,3.6,93,0.00,,,0.00,VWS V13.01,2012-03-18 09:26:00,
2012-03-18 04:31:00,65.7,63.6,29.97,NE,39,2.2,2.7,93,0.00,,,0.00,VWS V13.01,2012-03-18 09:31:00,
2012-03-18 04:36:00,65.7,63.6,29.97,NE,39,0.0,0.0,93,0.00,,,0.00,VWS V13.01,2012-03-18 09:36:00,
2012-03-18 04:41:00,65.7,63.6,29.97,NE,51,0.0,0.0,93,0.00,,,0.00,VWS V13.01,2012-03-18 09:41:00,
2012-03-18 04:46:00,65.7,63.6,29.97,NE,51,0.0,0.0,93,0.00,,,0.00,VWS V13.01,2012-03-18 09:46:00,
2012-03-18 04:51:00,65.5,63.4,29.97,NE,51,0.0,0.0,93,0.00,,,0.00,VWS V13.01,2012-03-18 09:51:00,
2012-03-18 04:56:00,65.5,63.4,29.97,East,90,0.0,0.0,93,0.00,,,0.00,VWS V13.01,2012-03-18 09:56:00,
2012-03-18 05:01:00,65.7,63.6,29.97,NE,52,0.0,0.0,93,0.00,,,0.00,VWS V13.01,2012-03-18 10:01:00,
2012-03-18 05:06:00,65.5,63.4,29.97,NE,52,0.0,0.0,93,0.00,,,0.00,VWS V13.01,2012-03-18 10:06:00,
2012-03-18 05:11:00,65.5,63.4,29.97,NNE,29,0.0,0.0,93,0.00,,,0.00,VWS V13.01,2012-03-18 10:11:00,
2012-03-18 05:16:00,64.9,63.5,29.97,NNE,12,0.0,0.0,95,0.00,,,0.00,VWS V13.01,2012-03-18 10:16:00,
2012-03-18 05:21:00,64.9,63.8,29.97,NE,45,0.0,0.0,96,0.00,,,0.00,VWS V13.01,2012-03-18 10:21:00,
2012-03-18 05:26:00,65.1,64.0,29.97,ENE,71,0.0,0.0,96,0.00,,,0.00,VWS V13.01,2012-03-18 10:26:00,
2012-03-18 05:31:00,65.3,63.5,30.00,ENE,63,0.0,0.0,94,0.00,,,0.00,VWS V13.01,2012-03-18 10:31:00,
2012-03-18 05:36:00,65.5,64.0,30.00,ESE,121,0.0,0.0,95,0.00,,,0.00,VWS V13.01,2012-03-18 10:36:00,
2012-03-18 05:41:00,65.5,63.7,30.00,ESE,121,0.0,0.0,94,0.00,,,0.00,VWS V13.01,2012-03-18 10:41:00,
2012-03-18 05:46:00,65.7,63.9,30.00,East,87,2.7,2.7,94,0.00,,,0.00,VWS V13.01,2012-03-18 10:46:00,
2012-03-18 05:51:00,65.8,63.8,30.00,NE,41,0.0,2.2,93,0.00,,,0.00,VWS V13.01,2012-03-18 10:51:00,
2012-03-18 05:56:00,65.7,63.6,30.00,NE,56,2.7,5.4,93,0.00,,,0.00,VWS V13.01,2012-03-18 10:56:00,
2012-03-18 06:01:00,65.7,63.6,30.00,East,101,2.7,4.0,93,0.00,,,0.00,VWS V13.01,2012-03-18 11:01:00,
2012-03-18 06:06:00,66.0,63.9,30.00,ESE,105,5.8,5.8,93,0.00,,,0.00,VWS V13.01,2012-03-18 11:06:00,
2012-03-18 06:11:00,66.4,63.7,30.00,North,11,2.2,3.6,91,0.00,,,0.00,VWS V13.01,2012-03-18 11:11:00,
2012-03-18 06:16:00,66.2,63.2,29.97,North,352,0.0,2.2,90,0.00,,,0.00,VWS V13.01,2012-03-18 11:16:00,
2012-03-18 06:21:00,65.8,63.5,29.97,North,4,0.0,0.0,92,0.00,,,0.00,VWS V13.01,2012-03-18 11:21:00,
2012-03-18 06:26:00,65.7,63.6,29.97,NE,34,0.0,0.0,93,0.00,,,0.00,VWS V13.01,2012-03-18 11:26:00,
2012-03-18 06:31:00,65.8,63.8,30.00,East,88,0.0,0.0,93,0.00,,,0.00,VWS V13.01,2012-03-18 11:31:00,
2012-03-18 06:36:00,66.0,63.9,30.00,South,178,0.0,0.0,93,0.00,,,0.00,VWS V13.01,2012-03-18 11:36:00,
2012-03-18 06:41:00,66.4,63.7,30.00,East,92,2.7,3.1,91,0.00,,,0.00,VWS V13.01,2012-03-18 11:41:00,
2012-03-18 06:46:00,66.9,63.3,30.00,East,86,0.0,3.6,88,0.00,,,0.00,VWS V13.01,2012-03-18 11:46:00,
2012-03-18 06:51:00,67.1,63.8,30.00,NNE,28,2.2,2.7,89,0.00,,,0.00,VWS V13.01,2012-03-18 11:51:00,
2012-03-18 06:56:00,66.7,63.7,30.00,NNW,329,0.0,0.0,90,0.00,,,0.00,VWS V13.01,2012-03-18 11:56:00,
2012-03-18 07:01:00,66.4,63.7,30.00,NNW,329,0.0,0.0,91,0.00,,,0.00,VWS V13.01,2012-03-18 12:01:00,
2012-03-18 07:06:00,66.0,63.6,30.00,NNW,334,0.0,0.0,92,0.00,,,0.00,VWS V13.01,2012-03-18 12:06:00,
2012-03-18 07:11:00,66.0,63.6,30.00,NNW,327,0.0,0.0,92,0.00,,,0.00,VWS V13.01,2012-03-18 12:11:00,
2012-03-18 07:16:00,66.0,63.6,30.00,East,90,0.0,0.0,92,0.00,,,0.00,VWS V13.01,2012-03-18 12:16:00,
2012-03-18 07:21:00,66.2,63.5,30.00,East,88,4.0,4.0,91,0.00,,,0.00,VWS V13.01,2012-03-18 12:21:00,
2012-03-18 07:26:00,66.2,63.2,30.00,East,81,0.0,3.1,90,0.00,,,0.00,VWS V13.01,2012-03-18 12:26:00,
2012-03-18 07:31:00,66.2,63.2,30.00,ENE,62,2.2,2.7,90,0.00,,,0.00,VWS V13.01,2012-03-18 12:31:00,
2012-03-18 07:36:00,65.8,63.1,30.00,NE,40,0.0,0.0,91,0.00,,,0.00,VWS V13.01,2012-03-18 12:36:00,
2012-03-18 07:41:00,65.7,63.3,30.00,ENE,74,3.6,3.6,92,0.00,,,0.00,VWS V13.01,2012-03-18 12:41:00,
2012-03-18 07:46:00,65.8,63.5,30.00,East,101,3.1,8.1,92,0.00,,,0.00,VWS V13.01,2012-03-18 12:46:00,
2012-03-18 07:51:00,66.2,63.5,30.00,East,87,3.6,5.8,91,0.00,,,0.00,VWS V13.01,2012-03-18 12:51:00,
2012-03-18 07:56:00,66.6,63.5,30.00,East,90,3.6,6.3,90,0.00,,,0.00,VWS V13.01,2012-03-18 12:56:00,
2012-03-18 08:01:00,66.7,63.7,30.00,ESE,113,3.6,5.4,90,0.00,,,0.00,VWS V13.01,2012-03-18 13:01:00,
2012-03-18 08:06:00,66.9,63.9,30.00,ESE,109,4.5,4.5,90,0.00,,,0.00,VWS V13.01,2012-03-18 13:06:00,
2012-03-18 08:11:00,67.1,64.1,30.00,ESE,122,5.8,5.8,90,0.00,,,0.00,VWS V13.01,2012-03-18 13:11:00,
2012-03-18 08:16:00,67.3,64.2,30.00,East,89,0.0,2.7,90,0.00,,,0.00,VWS V13.01,2012-03-18 13:16:00,
2012-03-18 08:21:00,67.6,64.3,30.00,ESE,117,4.0,6.3,89,0.00,,,0.00,VWS V13.01,2012-03-18 13:21:00,
2012-03-18 08:26:00,68.2,64.5,30.00,ENE,75,4.9,4.9,88,0.00,,,0.00,VWS V13.01,2012-03-18 13:26:00,
2012-03-18 08:31:00,68.5,64.2,30.00,ESE,103,3.6,5.4,86,0.00,,,0.00,VWS V13.01,2012-03-18 13:31:00,
2012-03-18 08:36:00,68.9,64.6,30.00,East,80,0.0,0.0,86,0.00,,,0.00,VWS V13.01,2012-03-18 13:36:00,
2012-03-18 08:41:00,69.4,64.4,30.00,East,100,2.7,2.7,84,0.00,,,0.00,VWS V13.01,2012-03-18 13:41:00,
2012-03-18 08:46:00,69.6,64.2,30.00,ENE,67,3.1,3.6,83,0.00,,,0.00,VWS V13.01,2012-03-18 13:46:00,
2012-03-18 08:51:00,69.8,64.4,30.00,ESE,111,2.2,2.2,83,0.00,,,0.00,VWS V13.01,2012-03-18 13:51:00,
2012-03-18 08:56:00,69.8,64.4,30.00,East,95,4.9,4.9,83,0.00,,,0.00,VWS V13.01,2012-03-18 13:56:00,
2012-03-18 09:01:00,69.6,64.2,30.00,East,99,4.0,4.0,83,0.00,,,0.00,VWS V13.01,2012-03-18 14:01:00,
2012-03-18 09:06:00,69.8,64.4,30.00,East,97,5.4,5.4,83,0.00,,,0.00,VWS V13.01,2012-03-18 14:06:00,
2012-03-18 09:11:00,70.2,64.8,30.00,NE,48,0.0,5.8,83,0.00,,,0.00,VWS V13.01,2012-03-18 14:11:00,
2012-03-18 09:16:00,70.5,64.4,30.03,ENE,70,4.0,4.0,81,0.00,,,0.00,VWS V13.01,2012-03-18 14:16:00,
2012-03-18 09:21:00,71.1,64.9,30.03,ESE,113,3.6,4.9,81,0.00,,,0.00,VWS V13.01,2012-03-18 14:21:00,
2012-03-18 09:26:00,71.4,64.9,30.03,ESE,105,4.0,4.0,80,0.00,,,0.00,VWS V13.01,2012-03-18 14:26:00,
2012-03-18 09:31:00,71.4,64.2,30.03,East,85,6.3,6.3,78,0.00,,,0.00,VWS V13.01,2012-03-18 14:31:00,
2012-03-18 09:36:00,71.4,64.6,30.03,East,80,7.6,7.6,79,0.00,,,0.00,VWS V13.01,2012-03-18 14:36:00,
2012-03-18 09:41:00,71.6,64.8,30.03,SE,129,4.0,4.0,79,0.00,,,0.00,VWS V13.01,2012-03-18 14:41:00,
2012-03-18 09:46:00,71.6,64.4,30.03,East,97,0.0,0.0,78,0.00,,,0.00,VWS V13.01,2012-03-18 14:46:00,
2012-03-18 09:51:00,72.1,64.9,30.03,ESE,110,3.1,3.6,78,0.00,,,0.00,VWS V13.01,2012-03-18 14:51:00,
2012-03-18 09:56:00,72.9,64.5,30.03,SE,130,3.6,4.0,75,0.00,,,0.00,VWS V13.01,2012-03-18 14:56:00,
2012-03-18 10:01:00,73.2,64.1,30.03,SSE,150,2.7,4.0,73,0.00,,,0.00,VWS V13.01,2012-03-18 15:01:00,
2012-03-18 10:06:00,73.4,64.2,30.03,SE,129,4.0,4.0,73,0.00,,,0.00,VWS V13.01,2012-03-18 15:06:00,
2012-03-18 10:11:00,73.4,63.4,30.03,SSE,147,5.4,5.8,71,0.00,,,0.00,VWS V13.01,2012-03-18 15:11:00,
2012-03-18 10:16:00,73.6,63.6,30.03,SSE,160,5.4,8.1,71,0.00,,,0.00,VWS V13.01,2012-03-18 15:16:00,
2012-03-18 10:21:00,73.6,64.0,30.03,SE,143,5.4,5.4,72,0.00,,,0.00,VWS V13.01,2012-03-18 15:21:00,
2012-03-18 10:26:00,73.8,63.4,30.03,SSE,150,8.1,8.1,70,0.00,,,0.00,VWS V13.01,2012-03-18 15:26:00,
2012-03-18 10:31:00,73.8,63.4,30.03,ESE,117,6.3,8.1,70,0.00,,,0.00,VWS V13.01,2012-03-18 15:31:00,
2012-03-18 10:37:00,73.8,62.5,30.03,ESE,121,6.3,11.0,68,0.00,,,0.00,VWS V13.01,2012-03-18 15:37:00,
2012-03-18 10:42:00,73.9,63.1,30.03,SSW,210,6.3,7.6,69,0.00,,,0.00,VWS V13.01,2012-03-18 15:42:00,
2012-03-18 10:47:00,74.3,63.1,30.03,SE,139,3.6,5.4,68,0.00,,,0.00,VWS V13.01,2012-03-18 15:47:00,
2012-03-18 10:52:00,75.0,63.3,30.03,South,169,3.6,5.4,67,0.00,,,0.00,VWS V13.01,2012-03-18 15:52:00,
2012-03-18 10:56:00,75.0,62.9,30.03,ESE,104,6.3,8.7,66,0.00,,,0.00,VWS V13.01,2012-03-18 15:56:00,
2012-03-18 11:01:00,74.8,62.7,30.03,SSE,155,5.4,5.8,66,0.00,,,0.00,VWS V13.01,2012-03-18 16:01:00,
2012-03-18 11:06:00,74.7,62.1,30.03,SSE,160,7.6,10.5,65,0.00,,,0.00,VWS V13.01,2012-03-18 16:06:00,
2012-03-18 11:11:00,74.7,63.4,30.03,South,170,7.6,7.6,68,0.00,,,0.00,VWS V13.01,2012-03-18 16:11:00,
2012-03-18 11:16:00,75.2,63.5,30.03,SSE,162,5.8,6.3,67,0.00,,,0.00,VWS V13.01,2012-03-18 16:16:00,
2012-03-18 11:21:00,75.6,63.0,30.03,South,183,8.7,10.1,65,0.00,,,0.00,VWS V13.01,2012-03-18 16:21:00,
2012-03-18 11:26:00,75.2,62.6,30.03,East,99,3.1,5.8,65,0.00,,,0.00,VWS V13.01,2012-03-18 16:26:00,
2012-03-18 11:31:00,75.4,62.4,30.03,SE,128,5.4,7.6,64,0.00,,,0.00,VWS V13.01,2012-03-18 16:31:00,
2012-03-18 11:36:00,75.7,61.8,30.03,SSE,164,8.1,9.2,62,0.00,,,0.00,VWS V13.01,2012-03-18 16:36:00,
2012-03-18 11:41:00,75.6,61.6,30.03,ENE,74,10.1,10.1,62,0.00,,,0.00,VWS V13.01,2012-03-18 16:41:00,
2012-03-18 11:46:00,75.6,61.6,30.03,SSW,199,5.8,8.3,62,0.00,,,0.00,VWS V13.01,2012-03-18 16:46:00,
2012-03-18 11:51:00,76.1,62.6,30.03,SE,138,5.8,8.3,63,0.00,,,0.00,VWS V13.01,2012-03-18 16:51:00,
2012-03-18 11:56:00,75.9,61.5,30.03,SE,143,5.8,11.0,61,0.00,,,0.00,VWS V13.01,2012-03-18 16:56:00,
2012-03-18 12:01:00,76.1,62.6,30.00,ESE,122,4.5,8.7,63,0.00,,,0.00,VWS V13.01,2012-03-18 17:01:00,
2012-03-18 12:06:00,76.8,62.8,30.00,SE,136,5.4,5.8,62,0.00,,,0.00,VWS V13.01,2012-03-18 17:06:00,
2012-03-18 12:11:00,77.2,62.7,30.00,ESE,118,5.4,8.1,61,0.00,,,0.00,VWS V13.01,2012-03-18 17:11:00,
2012-03-18 12:16:00,77.4,62.9,30.00,ESE,102,10.1,10.1,61,0.00,,,0.00,VWS V13.01,2012-03-18 17:16:00,
2012-03-18 12:21:00,77.2,61.3,30.00,ESE,118,5.4,12.3,58,0.00,,,0.00,VWS V13.01,2012-03-18 17:21:00,
2012-03-18 12:26:00,76.5,60.6,30.00,SE,127,5.8,8.7,58,0.00,,,0.00,VWS V13.01,2012-03-18 17:26:00,
2012-03-18 12:31:00,76.8,60.9,30.00,SSE,168,6.3,8.7,58,0.00,,,0.00,VWS V13.01,2012-03-18 17:31:00,
2012-03-18 12:36:00,77.5,61.1,30.00,SSE,150,7.6,11.0,57,0.00,,,0.00,VWS V13.01,2012-03-18 17:36:00,
2012-03-18 12:41:00,78.3,60.8,30.00,SE,143,9.2,10.1,55,0.00,,,0.00,VWS V13.01,2012-03-18 17:41:00,
2012-03-18 12:46:00,78.1,60.1,30.00,ENE,64,9.6,9.6,54,0.00,,,0.00,VWS V13.01,2012-03-18 17:46:00,
2012-03-18 12:51:00,78.3,60.3,30.00,SE,135,7.6,12.8,54,0.00,,,0.00,VWS V13.01,2012-03-18 17:51:00,
2012-03-18 12:56:00,78.1,60.1,30.00,ESE,114,8.3,9.6,54,0.00,,,0.00,VWS V13.01,2012-03-18 17:56:00,
2012-03-18 13:01:00,78.6,60.6,30.00,SSE,155,11.0,11.0,54,0.00,,,0.00,VWS V13.01,2012-03-18 18:01:00,
2012-03-18 13:06:00,78.8,60.8,30.00,SSE,155,5.8,12.3,54,0.00,,,0.00,VWS V13.01,2012-03-18 18:06:00,
2012-03-18 13:11:00,78.6,60.1,30.00,East,101,8.1,8.1,53,0.00,,,0.00,VWS V13.01,2012-03-18 18:11:00,
2012-03-18 13:16:00,79.3,60.7,30.00,SSE,147,6.3,6.3,53,0.00,,,0.00,VWS V13.01,2012-03-18 18:16:00,
2012-03-18 13:21:00,79.2,60.6,30.00,SE,143,5.4,9.6,53,0.00,,,0.00,VWS V13.01,2012-03-18 18:21:00,
2012-03-18 13:26:00,79.3,60.7,30.00,SE,130,6.3,8.3,53,0.00,,,0.00,VWS V13.01,2012-03-18 18:26:00,
2012-03-18 13:31:00,78.8,59.7,30.00,South,178,8.3,8.3,52,0.00,,,0.00,VWS V13.01,2012-03-18 18:31:00,
2012-03-18 13:36:00,78.6,60.1,30.00,SSE,153,6.3,8.7,53,0.00,,,0.00,VWS V13.01,2012-03-18 18:36:00,
2012-03-18 13:41:00,78.6,60.1,30.00,ESE,112,5.4,5.4,53,0.00,,,0.00,VWS V13.01,2012-03-18 18:41:00,
2012-03-18 13:46:00,79.3,60.2,30.00,South,178,8.3,8.3,52,0.00,,,0.00,VWS V13.01,2012-03-18 18:46:00,
2012-03-18 13:47:00,79.5,60.4,30.00,SE,128,5.8,8.3,52,0.00,,,0.00,VWS V13.01,2012-03-18 18:47:00,
2012-03-18 13:52:00,80.2,60.5,30.00,SE,136,8.1,8.1,51,0.00,,,0.00,VWS V13.01,2012-03-18 18:52:00,
2012-03-18 13:57:00,80.6,60.8,30.00,South,182,5.8,6.3,51,0.00,,,0.00,VWS V13.01,2012-03-18 18:57:00,
2012-03-18 14:02:00,80.6,60.8,29.97,ESE,120,5.8,6.7,51,0.00,,,0.00,VWS V13.01,2012-03-18 19:02:00,
2012-03-18 14:07:00,81.0,61.2,29.97,South,169,10.5,10.5,51,0.00,,,0.00,VWS V13.01,2012-03-18 19:07:00,
2012-03-18 14:12:00,80.6,60.8,29.97,SE,128,5.8,9.6,51,0.00,,,0.00,VWS V13.01,2012-03-18 19:12:00,
2012-03-18 14:17:00,80.2,60.5,29.97,ESE,116,6.3,7.6,51,0.00,,,0.00,VWS V13.01,2012-03-18 19:17:00,
2012-03-18 14:22:00,80.4,60.7,29.97,SE,140,5.8,8.3,51,0.00,,,0.00,VWS V13.01,2012-03-18 19:22:00,
2012-03-18 14:27:00,80.4,60.7,29.97,SSE,157,8.3,8.7,51,0.00,,,0.00,VWS V13.01,2012-03-18 19:27:00,
2012-03-18 14:32:00,80.2,59.9,29.97,South,185,13.2,13.2,50,0.00,,,0.00,VWS V13.01,2012-03-18 19:32:00,
2012-03-18 14:37:00,80.4,60.1,29.97,SSE,147,8.3,8.3,50,0.00,,,0.00,VWS V13.01,2012-03-18 19:37:00,
2012-03-18 14:42:00,81.0,60.6,29.97,SSE,154,5.8,8.3,50,0.00,,,0.00,VWS V13.01,2012-03-18 19:42:00,
2012-03-18 14:47:00,81.5,59.9,29.97,ESE,116,5.4,11.0,48,0.00,,,0.00,VWS V13.01,2012-03-18 19:47:00,
2012-03-18 14:52:00,81.5,59.9,29.97,SE,125,11.0,11.0,48,0.00,,,0.00,VWS V13.01,2012-03-18 19:52:00,
2012-03-18 14:57:00,81.1,59.6,29.97,South,181,9.6,9.6,48,0.00,,,0.00,VWS V13.01,2012-03-18 19:57:00,
2012-03-18 15:02:00,80.4,59.5,29.97,SSE,147,12.3,12.3,49,0.00,,,0.00,VWS V13.01,2012-03-18 20:02:00,
2012-03-18 15:07:00,80.2,60.5,29.97,SSE,155,4.0,4.9,51,0.00,,,0.00,VWS V13.01,2012-03-18 20:07:00,
2012-03-18 15:12:00,80.4,60.7,29.97,SE,124,6.3,6.3,51,0.00,,,0.00,VWS V13.01,2012-03-18 20:12:00,
2012-03-18 15:17:00,81.0,60.6,29.94,SE,124,8.1,8.7,50,0.00,,,0.00,VWS V13.01,2012-03-18 20:17:00,
2012-03-18 15:22:00,81.3,60.9,29.94,East,88,7.6,8.1,50,0.00,,,0.00,VWS V13.01,2012-03-18 20:22:00,
2012-03-18 15:27:00,81.3,61.5,29.94,SE,125,9.2,9.2,51,0.00,,,0.00,VWS V13.01,2012-03-18 20:27:00,
2012-03-18 15:32:00,81.1,60.8,29.94,SE,125,15.0,15.0,50,0.00,,,0.00,VWS V13.01,2012-03-18 20:32:00,
2012-03-18 15:37:00,81.3,60.3,29.94,SSE,154,5.8,5.8,49,0.00,,,0.00,VWS V13.01,2012-03-18 20:37:00,
2012-03-18 15:42:00,81.7,60.7,29.94,East,83,8.3,8.3,49,0.00,,,0.00,VWS V13.01,2012-03-18 20:42:00,
2012-03-18 15:47:00,81.9,59.7,29.94,South,175,7.2,8.1,47,0.00,,,0.00,VWS V13.01,2012-03-18 20:47:00,
2012-03-18 15:52:00,81.7,58.9,29.94,South,177,13.2,13.2,46,0.00,,,0.00,VWS V13.01,2012-03-18 20:52:00,
2012-03-18 15:57:00,81.3,59.2,29.94,SE,140,6.7,13.2,47,0.00,,,0.00,VWS V13.01,2012-03-18 20:57:00,
2012-03-18 16:02:00,81.1,59.6,29.94,SSE,163,8.3,8.3,48,0.00,,,0.00,VWS V13.01,2012-03-18 21:02:00,
2012-03-18 16:07:00,80.6,58.5,29.94,SE,134,7.6,7.6,47,0.00,,,0.00,VWS V13.01,2012-03-18 21:07:00,
2012-03-18 16:12:00,81.0,58.3,29.94,South,171,8.3,10.5,46,0.00,,,0.00,VWS V13.01,2012-03-18 21:12:00,
2012-03-18 16:17:00,80.8,58.1,29.94,ESE,107,12.8,12.8,46,0.00,,,0.00,VWS V13.01,2012-03-18 21:17:00,
2012-03-18 16:22:00,80.2,57.6,29.94,SSE,147,5.8,6.3,46,0.00,,,0.00,VWS V13.01,2012-03-18 21:22:00,
2012-03-18 16:27:00,79.9,57.3,29.94,ESE,107,6.7,12.8,46,0.00,,,0.00,VWS V13.01,2012-03-18 21:27:00,
2012-03-18 16:32:00,79.9,57.9,29.94,SSE,156,4.0,8.1,47,0.00,,,0.00,VWS V13.01,2012-03-18 21:32:00,
2012-03-18 16:38:00,79.5,58.1,29.94,SSE,166,3.1,8.1,48,0.00,,,0.00,VWS V13.01,2012-03-18 21:38:00,
2012-03-18 16:43:00,79.5,58.1,29.94,ENE,67,8.7,8.7,48,0.00,,,0.00,VWS V13.01,2012-03-18 21:43:00,
2012-03-18 16:48:00,79.3,58.5,29.94,SE,126,6.3,6.3,49,0.00,,,0.00,VWS V13.01,2012-03-18 21:48:00,
2012-03-18 16:53:00,79.2,58.4,29.94,SE,129,4.0,5.4,49,0.00,,,0.00,VWS V13.01,2012-03-18 21:53:00,
2012-03-18 16:58:00,79.0,58.8,29.94,SE,129,3.6,5.4,50,0.00,,,0.00,VWS V13.01,2012-03-18 21:58:00,
2012-03-18 17:03:00,78.8,58.6,29.94,ENE,70,7.6,11.9,50,0.00,,,0.00,VWS V13.01,2012-03-18 22:03:00,
2012-03-18 17:08:00,78.6,59.0,29.94,East,90,5.4,6.3,51,0.00,,,0.00,VWS V13.01,2012-03-18 22:08:00,
2012-03-18 17:13:00,78.3,58.7,29.94,South,185,8.3,8.3,51,0.00,,,0.00,VWS V13.01,2012-03-18 22:13:00,
2012-03-18 17:18:00,78.1,58.5,29.94,SE,127,4.0,5.8,51,0.00,,,0.00,VWS V13.01,2012-03-18 22:18:00,
2012-03-18 17:23:00,77.9,58.9,29.94,SE,124,5.4,5.4,52,0.00,,,0.00,VWS V13.01,2012-03-18 22:23:00,
2012-03-18 17:28:00,77.9,58.9,29.94,ESE,121,5.4,5.4,52,0.00,,,0.00,VWS V13.01,2012-03-18 22:28:00,
2012-03-18 17:33:00,77.7,58.7,29.94,SSE,164,6.3,6.3,52,0.00,,,0.00,VWS V13.01,2012-03-18 22:33:00,
2012-03-18 17:38:00,77.5,58.5,29.94,SE,130,10.1,10.1,52,0.00,,,0.00,VWS V13.01,2012-03-18 22:38:00,
2012-03-18 17:43:00,77.7,58.7,29.94,SSE,156,6.3,10.1,52,0.00,,,0.00,VWS V13.01,2012-03-18 22:43:00,
2012-03-18 17:48:00,77.7,58.7,29.94,ESE,109,3.1,8.3,52,0.00,,,0.00,VWS V13.01,2012-03-18 22:48:00,
2012-03-18 17:53:00,77.7,58.7,29.94,ESE,105,3.6,5.8,52,0.00,,,0.00,VWS V13.01,2012-03-18 22:53:00,
2012-03-18 17:58:00,77.7,59.2,29.94,ESE,109,4.0,4.9,53,0.00,,,0.00,VWS V13.01,2012-03-18 22:58:00,
2012-03-18 18:03:00,77.7,59.2,29.91,SE,128,5.8,5.8,53,0.00,,,0.00,VWS V13.01,2012-03-18 23:03:00,
2012-03-18 18:08:00,77.7,59.2,29.91,SE,143,4.9,5.8,53,0.00,,,0.00,VWS V13.01,2012-03-18 23:08:00,
2012-03-18 18:13:00,77.9,59.4,29.91,East,101,3.1,4.0,53,0.00,,,0.00,VWS V13.01,2012-03-18 23:13:00,
2012-03-18 18:18:00,77.7,59.2,29.94,ESE,112,4.0,6.3,53,0.00,,,0.00,VWS V13.01,2012-03-18 23:18:00,
2012-03-18 18:23:00,77.7,59.2,29.94,SE,131,2.7,5.8,53,0.00,,,0.00,VWS V13.01,2012-03-18 23:23:00,
2012-03-18 18:28:00,77.5,59.1,29.94,SE,143,5.4,5.8,53,0.00,,,0.00,VWS V13.01,2012-03-18 23:28:00,
2012-03-18 18:33:00,77.4,59.4,29.91,East,82,4.9,4.9,54,0.00,,,0.00,VWS V13.01,2012-03-18 23:33:00,
2012-03-18 18:38:00,77.2,59.3,29.91,ESE,103,2.2,3.1,54,0.00,,,0.00,VWS V13.01,2012-03-18 23:38:00,
2012-03-18 18:43:00,77.0,59.1,29.91,ESE,108,3.1,3.1,54,0.00,,,0.00,VWS V13.01,2012-03-18 23:43:00,
2012-03-18 18:48:00,77.0,59.1,29.91,East,95,3.6,4.9,54,0.00,,,0.00,VWS V13.01,2012-03-18 23:48:00,
2012-03-18 18:53:00,76.6,59.3,29.91,ESE,115,0.0,2.2,55,0.00,,,0.00,VWS V13.01,2012-03-18 23:53:00,
2012-03-18 18:58:00,76.5,59.1,29.91,ESE,109,2.7,3.6,55,0.00,,,0.00,VWS V13.01,2012-03-18 23:58:00,
2012-03-18 19:03:00,76.1,59.3,29.91,East,88,2.7,2.7,56,0.00,,,0.00,VWS V13.01,2012-03-19 00:03:00,
2012-03-18 19:08:00,75.9,59.1,29.91,ESE,102,0.0,0.0,56,0.00,,,0.00,VWS V13.01,2012-03-19 00:08:00,
2012-03-18 19:13:00,75.6,59.3,29.91,ENE,67,0.0,2.7,57,0.00,,,0.00,VWS V13.01,2012-03-19 00:13:00,
2012-03-18 19:18:00,75.2,58.9,29.91,East,88,3.6,3.6,57,0.00,,,0.00,VWS V13.01,2012-03-19 00:18:00,
2012-03-18 19:23:00,75.2,58.9,29.91,ESE,105,3.1,3.6,57,0.00,,,0.00,VWS V13.01,2012-03-19 00:23:00,
2012-03-18 19:28:00,75.2,58.9,29.91,East,84,4.5,4.5,57,0.00,,,0.00,VWS V13.01,2012-03-19 00:28:00,
2012-03-18 19:33:00,75.2,59.4,29.91,ESE,120,3.1,3.1,58,0.00,,,0.00,VWS V13.01,2012-03-19 00:33:00,
2012-03-18 19:38:00,74.8,59.1,29.91,East,97,2.2,3.1,58,0.00,,,0.00,VWS V13.01,2012-03-19 00:38:00,
2012-03-18 19:43:00,74.8,59.1,29.91,East,99,3.6,4.0,58,0.00,,,0.00,VWS V13.01,2012-03-19 00:43:00,
2012-03-18 19:48:00,74.8,59.1,29.91,ENE,73,5.4,5.4,58,0.00,,,0.00,VWS V13.01,2012-03-19 00:48:00,
2012-03-18 19:53:00,74.8,59.1,29.91,ESE,104,3.6,3.6,58,0.00,,,0.00,VWS V13.01,2012-03-19 00:53:00,
2012-03-18 19:58:00,74.7,59.4,29.91,East,79,2.7,3.1,59,0.00,,,0.00,VWS V13.01,2012-03-19 00:58:00,
2012-03-18 20:03:00,74.5,58.8,29.91,NE,54,3.1,3.1,58,0.00,,,0.00,VWS V13.01,2012-03-19 01:03:00,
2012-03-18 20:08:00,74.5,59.2,29.91,SE,132,2.2,3.1,59,0.00,,,0.00,VWS V13.01,2012-03-19 01:08:00,
2012-03-18 20:13:00,74.3,59.1,29.91,East,95,0.0,0.0,59,0.00,,,0.00,VWS V13.01,2012-03-19 01:13:00,
2012-03-18 20:18:00,74.1,58.9,29.91,NE,53,0.0,0.0,59,0.00,,,0.00,VWS V13.01,2012-03-19 01:18:00,
2012-03-18 20:23:00,73.9,59.2,29.91,East,83,3.1,3.1,60,0.00,,,0.00,VWS V13.01,2012-03-19 01:23:00,
2012-03-18 20:28:00,73.9,59.2,29.91,East,83,0.0,0.0,60,0.00,,,0.00,VWS V13.01,2012-03-19 01:28:00,
2012-03-18 20:33:00,73.8,59.9,29.91,NE,36,2.7,3.1,62,0.00,,,0.00,VWS V13.01,2012-03-19 01:33:00,
2012-03-18 20:38:00,73.0,60.2,29.91,NE,41,3.1,3.1,64,0.00,,,0.00,VWS V13.01,2012-03-19 01:38:00,
2012-03-18 20:43:00,72.3,60.3,29.91,NNE,19,0.0,0.0,66,0.00,,,0.00,VWS V13.01,2012-03-19 01:43:00,
2012-03-18 20:48:00,71.6,60.1,29.91,NNE,19,0.0,0.0,67,0.00,,,0.00,VWS V13.01,2012-03-19 01:48:00,
2012-03-18 20:53:00,71.1,60.8,29.91,NNE,19,0.0,0.0,70,0.00,,,0.00,VWS V13.01,2012-03-19 01:53:00,
2012-03-18 20:58:00,70.7,60.0,29.91,NNE,14,0.0,0.0,69,0.00,,,0.00,VWS V13.01,2012-03-19 01:58:00,
2012-03-18 21:03:00,70.9,60.2,29.91,NE,36,2.2,2.2,69,0.00,,,0.00,VWS V13.01,2012-03-19 02:03:00,
2012-03-18 21:08:00,70.9,60.6,29.91,NE,36,0.0,0.0,70,0.00,,,0.00,VWS V13.01,2012-03-19 02:08:00,
2012-03-18 21:13:00,70.9,60.2,29.91,NE,36,0.0,0.0,69,0.00,,,0.00,VWS V13.01,2012-03-19 02:13:00,
2012-03-18 21:18:00,70.7,60.5,29.91,NE,43,0.0,0.0,70,0.00,,,0.00,VWS V13.01,2012-03-19 02:18:00,
2012-03-18 21:23:00,70.7,60.8,29.91,NE,54,0.0,0.0,71,0.00,,,0.00,VWS V13.01,2012-03-19 02:23:00,
2012-03-18 21:28:00,70.7,60.5,29.91,ENE,63,0.0,0.0,70,0.00,,,0.00,VWS V13.01,2012-03-19 02:28:00,
2012-03-18 21:33:00,70.9,60.2,29.91,ENE,57,2.2,2.2,69,0.00,,,0.00,VWS V13.01,2012-03-19 02:33:00,
2012-03-18 21:38:00,71.2,60.2,29.91,ENE,71,2.2,2.2,68,0.00,,,0.00,VWS V13.01,2012-03-19 02:38:00,
2012-03-18 21:43:00,71.4,59.9,29.91,ENE,70,2.2,2.2,67,0.00,,,0.00,VWS V13.01,2012-03-19 02:43:00,
2012-03-18 21:48:00,71.8,59.8,29.91,East,90,2.7,2.7,66,0.00,,,0.00,VWS V13.01,2012-03-19 02:48:00,
2012-03-18 21:53:00,72.1,59.7,29.91,NE,55,2.7,4.0,65,0.00,,,0.00,VWS V13.01,2012-03-19 02:53:00,
2012-03-18 21:58:00,72.1,59.7,29.91,ENE,66,2.2,3.1,65,0.00,,,0.00,VWS V13.01,2012-03-19 02:58:00,
2012-03-18 22:03:00,72.1,59.7,29.94,ENE,62,0.0,0.0,65,0.00,,,0.00,VWS V13.01,2012-03-19 03:03:00,
2012-03-18 22:08:00,72.1,59.7,29.94,NE,48,2.7,2.7,65,0.00,,,0.00,VWS V13.01,2012-03-19 03:08:00,
2012-03-18 22:13:00,71.8,59.8,29.94,NE,50,2.7,3.1,66,0.00,,,0.00,VWS V13.01,2012-03-19 03:13:00,
2012-03-18 22:18:00,71.6,59.7,29.94,ENE,58,3.1,3.1,66,0.00,,,0.00,VWS V13.01,2012-03-19 03:18:00,
2012-03-18 22:23:00,71.6,59.7,29.94,NE,50,3.1,3.1,66,0.00,,,0.00,VWS V13.01,2012-03-19 03:23:00,
2012-03-18 22:28:00,71.6,59.7,29.94,ENE,60,3.1,3.1,66,0.00,,,0.00,VWS V13.01,2012-03-19 03:28:00,
2012-03-18 22:33:00,71.4,59.5,29.91,ENE,74,3.1,3.1,66,0.00,,,0.00,VWS V13.01,2012-03-19 03:33:00,
2012-03-18 22:38:00,71.4,59.9,29.91,East,84,4.0,4.0,67,0.00,,,0.00,VWS V13.01,2012-03-19 03:38:00,
2012-03-18 22:43:00,71.6,59.7,29.91,East,80,6.3,6.3,66,0.00,,,0.00,VWS V13.01,2012-03-19 03:43:00,
2012-03-18 22:48:00,72.0,60.0,29.91,East,92,5.8,5.8,66,0.00,,,0.00,VWS V13.01,2012-03-19 03:48:00,
2012-03-18 22:53:00,72.1,60.2,29.91,East,93,5.4,5.4,66,0.00,,,0.00,VWS V13.01,2012-03-19 03:53:00,
2012-03-18 22:58:00,72.3,60.3,29.91,East,83,3.6,6.3,66,0.00,,,0.00,VWS V13.01,2012-03-19 03:58:00,
2012-03-18 23:00:00,72.5,60.5,29.91,ESE,121,3.1,5.4,66,0.00,,,0.00,VWS V13.01,2012-03-19 04:00:00,
2012-03-18 23:05:00,72.9,60.8,29.91,East,94,4.9,4.9,66,0.00,,,0.00,VWS V13.01,2012-03-19 04:05:00,
2012-03-18 23:10:00,73.0,60.6,29.91,ESE,122,4.0,5.8,65,0.00,,,0.00,VWS V13.01,2012-03-19 04:10:00,
2012-03-18 23:15:00,73.0,60.6,29.91,East,84,5.4,5.4,65,0.00,,,0.00,VWS V13.01,2012-03-19 04:15:00,
2012-03-18 23:20:00,73.2,61.2,29.91,ESE,120,2.7,3.1,66,0.00,,,0.00,VWS V13.01,2012-03-19 04:20:00,
2012-03-18 23:25:00,73.0,61.0,29.91,ESE,120,2.7,4.0,66,0.00,,,0.00,VWS V13.01,2012-03-19 04:25:00,
2012-03-18 23:30:00,72.7,60.7,29.94,ESE,104,5.4,5.4,66,0.00,,,0.00,VWS V13.01,2012-03-19 04:30:00,
2012-03-18 23:35:00,72.7,61.1,29.94,East,87,3.6,3.6,67,0.00,,,0.00,VWS V13.01,2012-03-19 04:35:00,
2012-03-18 23:36:00,72.7,61.1,29.94,East,93,3.6,3.6,67,0.00,,,0.00,VWS V13.01,2012-03-19 04:36:00,
2012-03-18 23:41:00,72.7,61.1,29.94,East,89,4.0,7.6,67,0.00,,,0.00,VWS V13.01,2012-03-19 04:41:00,
2012-03-18 23:46:00,72.9,61.7,29.91,ESE,115,2.7,5.4,68,0.00,,,0.00,VWS V13.01,2012-03-19 04:46:00,
2012-03-18 23:51:00,72.9,61.7,29.91,ESE,116,5.4,5.4,68,0.00,,,0.00,VWS V13.01,2012-03-19 04:51:00,
2012-03-18 23:56:00,72.9,61.7,29.91,East,90,4.0,4.5,68,0.00,,,0.00,VWS V13.01,2012-03-19 04:56:00,